Location: ???????
(54.9996°N, 37.9529°E)
Time: 15:25:29
(UTC+00:00)

Cosmos 2026 Rocket - Pass Details

Date: 14 April 2024
Orbit: 938 x 1000 km, 82.9° (Epoch: 18 May)

Event Time Altitude Azimuth Distance (km) Brightness Sun altitude
Exits shadow 00:49:25 - 188° (S) 3,032 6.2 -13.1°
Reaches altitude 10° 00:50:12 10° 188° (S) 2,737 5.9 -13.0°
Maximum altitude 00:56:31 89° 100° (E) 1,003 4.1 -12.3°
Drops below altitude 10° 01:02:56 10° 12° (NNE) 2,783 7.1 -11.5°
Sets 01:05:29 0° 12° (NNE) 3,739 7.8 -11.2°
